Tracking 26442 objects as of 6-Dec-2022
HD Live streaming from Space Station
objects crossing your sky now

COSMOS 2528

Track COSMOS 2528 now!
10-day predictions


NORAD ID: 43657
Int'l Code: 2018-082A
Perigee: 907.5 km
Apogee: 918.3 km
Inclination: 67.1 °
Period: 103.1 minutes
Semi major axis: 7283 km
RCS: Unknown
Launch date: October 25, 2018
Source: Commonwealth of Independent States (former USSR) (CIS)
Launch site: PLESETSK MISSILE AND SPACE COMPLEX (PKMTR)
aabbcc
Your satellite tracking list
Your tracking list is empty




NASA's NSSDC Master Catalog

Two Line Element Set (TLE):
1 43657U 18082A   22339.70646645 -.00000043  00000-0  22964-4 0  9996
2 43657  67.1489 331.4230 0007435 257.9500 102.0751 13.96541963209885
Source of the keplerian elements: AFSPC